owner,sensor,date,latitude,longitude,vertical_datum,sea_water_practical_salinity,qcFlag 
WAVCIS,ioos:station:WAVCIS:CSI16:1,2010-06-01T00:00:00Z,29.4012,-89.0355,1.0,19.402,11111222 
WAVCIS,ioos:station:WAVCIS:CSI16:1,2010-06-01T00:15:00Z,29.4012,-89.0355,1.0,18.474,11111222 
WAVCIS,ioos:station:WAVCIS:CSI16:1,2010-06-01T00:30:00Z,29.4012,-89.0355,1.0,19.079,11111222 
WAVCIS,ioos:station:WAVCIS:CSI16:1,2010-06-01T00:45:00Z,29.4012,-89.0355,1.0,18.381,11111222 
WAVCIS,ioos:station:WAVCIS:CSI16:1,2010-06-01T01:00:00Z,29.4012,-89.0355,1.0,18.396,11111222 
WAVCIS,ioos:station:WAVCIS:CSI16:1,2010-06-01T01:15:00Z,29.4012,-89.0355,1.0,17.735,11111222 
WAVCIS,ioos:station:WAVCIS:CSI16:1,2010-06-01T01:30:00Z,29.4012,-89.0355,1.0,17.97,11111222 
WAVCIS,ioos:station:WAVCIS:CSI16:1,2010-06-01T01:45:00Z,29.4012,-89.0355,1.0,18.251,11111222 
WAVCIS,ioos:station:WAVCIS:CSI16:1,2010-06-01T02:00:00Z,29.4012,-89.0355,1.0,17.669,11111222 
WAVCIS,ioos:station:WAVCIS:CSI16:1,2010-06-01T02:15:00Z,29.4012,-89.0355,1.0,16.476,11111222 
WAVCIS,ioos:station:WAVCIS:CSI16:1,2010-06-01T02:30:00Z,29.4012,-89.0355,1.0,14.807,11111222 
WAVCIS,ioos:station:WAVCIS:CSI16:1,2010-06-01T02:45:00Z,29.4012,-89.0355,1.0,18.258,11111222 
WAVCIS,ioos:station:WAVCIS:CSI16:1,2010-06-01T03:00:00Z,29.4012,-89.0355,1.0,15.748,11111222 
WAVCIS,ioos:station:WAVCIS:CSI16:1,2010-06-01T03:15:00Z,29.4012,-89.0355,1.0,15.649,11111222 
WAVCIS,ioos:station:WAVCIS:CSI16:1,2010-06-01T03:30:00Z,29.4012,-89.0355,1.0,17.022,11111222 
WAVCIS,ioos:station:WAVCIS:CSI16:1,2010-06-01T03:45:00Z,29.4012,-89.0355,1.0,16.362,11111222 
WAVCIS,ioos:station:WAVCIS:CSI16:1,2010-06-01T04:00:00Z,29.4012,-89.0355,1.0,15.944,11111222 
WAVCIS,ioos:station:WAVCIS:CSI16:1,2010-06-01T04:15:00Z,29.4012,-89.0355,1.0,16.661,11111222 
WAVCIS,ioos:station:WAVCIS:CSI16:1,2010-06-01T04:30:00Z,29.4012,-89.0355,1.0,19.783,11111222 
WAVCIS,ioos:station:WAVCIS:CSI16:1,2010-06-01T04:45:00Z,29.4012,-89.0355,1.0,19.332,11111222 
WAVCIS,ioos:station:WAVCIS:CSI16:1,2010-06-01T05:00:00Z,29.4012,-89.0355,1.0,18.798,11111222 
WAVCIS,ioos:station:WAVCIS:CSI16:1,2010-06-01T05:15:00Z,29.4012,-89.0355,1.0,18.034,11111222 
WAVCIS,ioos:station:WAVCIS:CSI16:1,2010-06-01T05:30:00Z,29.4012,-89.0355,1.0,17.497,11111222 
WAVCIS,ioos:station:WAVCIS:CSI16:1,2010-06-01T05:45:00Z,29.4012,-89.0355,1.0,17.719,11111222 
WAVCIS,ioos:station:WAVCIS:CSI16:1,2010-06-01T06:00:00Z,29.4012,-89.0355,1.0,17.773,11111222 
WAVCIS,ioos:station:WAVCIS:CSI16:1,2010-06-01T06:15:00Z,29.4012,-89.0355,1.0,18.311,11111222 
WAVCIS,ioos:station:WAVCIS:CSI16:1,2010-06-01T06:30:00Z,29.4012,-89.0355,1.0,17.739,11111222 
WAVCIS,ioos:station:WAVCIS:CSI16:1,2010-06-01T06:45:00Z,29.4012,-89.0355,1.0,17.702,11111222 
WAVCIS,ioos:station:WAVCIS:CSI16:1,2010-06-01T07:00:00Z,29.4012,-89.0355,1.0,17.706,11111222 
WAVCIS,ioos:station:WAVCIS:CSI16:1,2010-06-01T07:15:00Z,29.4012,-89.0355,1.0,17.738,11111222 
WAVCIS,ioos:station:WAVCIS:CSI16:1,2010-06-01T07:30:00Z,29.4012,-89.0355,1.0,18.002,11111222 
WAVCIS,ioos:station:WAVCIS:CSI16:1,2010-06-01T07:45:00Z,29.4012,-89.0355,1.0,18.57,11111222 
WAVCIS,ioos:station:WAVCIS:CSI16:1,2010-06-01T08:00:00Z,29.4012,-89.0355,1.0,19.029,11111222 
WAVCIS,ioos:station:WAVCIS:CSI16:1,2010-06-01T08:15:00Z,29.4012,-89.0355,1.0,21.297,11111222 
WAVCIS,ioos:station:WAVCIS:CSI16:1,2010-06-01T08:30:00Z,29.4012,-89.0355,1.0,20.899,11111222 
WAVCIS,ioos:station:WAVCIS:CSI16:1,2010-06-01T08:45:00Z,29.4012,-89.0355,1.0,20.679,11111222 
WAVCIS,ioos:station:WAVCIS:CSI16:1,2010-06-01T09:00:00Z,29.4012,-89.0355,1.0,20.649,11111222 
WAVCIS,ioos:station:WAVCIS:CSI16:1,2010-06-01T09:15:00Z,29.4012,-89.0355,1.0,20.935,11111222 
WAVCIS,ioos:station:WAVCIS:CSI16:1,2010-06-01T09:30:00Z,29.4012,-89.0355,1.0,21.438,11111222 
WAVCIS,ioos:station:WAVCIS:CSI16:1,2010-06-01T09:45:00Z,29.4012,-89.0355,1.0,21.317,11111222 
WAVCIS,ioos:station:WAVCIS:CSI16:1,2010-06-01T10:00:00Z,29.4012,-89.0355,1.0,21.829,11111222 
WAVCIS,ioos:station:WAVCIS:CSI16:1,2010-06-01T10:15:00Z,29.4012,-89.0355,1.0,22.149,11111222 
WAVCIS,ioos:station:WAVCIS:CSI16:1,2010-06-01T10:30:00Z,29.4012,-89.0355,1.0,22.291,11111222 
WAVCIS,ioos:station:WAVCIS:CSI16:1,2010-06-01T10:45:00Z,29.4012,-89.0355,1.0,22.437,11111222 
WAVCIS,ioos:station:WAVCIS:CSI16:1,2010-06-01T11:00:00Z,29.4012,-89.0355,1.0,22.514,11111222 
WAVCIS,ioos:station:WAVCIS:CSI16:1,2010-06-01T11:15:00Z,29.4012,-89.0355,1.0,22.561,11111222 
WAVCIS,ioos:station:WAVCIS:CSI16:1,2010-06-01T11:30:00Z,29.4012,-89.0355,1.0,22.128,11111222 
WAVCIS,ioos:station:WAVCIS:CSI16:1,2010-06-01T11:45:00Z,29.4012,-89.0355,1.0,22.89,11111222 
WAVCIS,ioos:station:WAVCIS:CSI16:1,2010-06-01T12:00:00Z,29.4012,-89.0355,1.0,23.633,11111222 
WAVCIS,ioos:station:WAVCIS:CSI16:1,2010-06-01T12:15:00Z,29.4012,-89.0355,1.0,24.018,11111222 
WAVCIS,ioos:station:WAVCIS:CSI16:1,2010-06-01T12:30:00Z,29.4012,-89.0355,1.0,24.158,11111222 
WAVCIS,ioos:station:WAVCIS:CSI16:1,2010-06-01T12:45:00Z,29.4012,-89.0355,1.0,24.164,11111222 
WAVCIS,ioos:station:WAVCIS:CSI16:1,2010-06-01T13:00:00Z,29.4012,-89.0355,1.0,24.043,11111222 
WAVCIS,ioos:station:WAVCIS:CSI16:1,2010-06-01T13:15:00Z,29.4012,-89.0355,1.0,24.498,11111222 
WAVCIS,ioos:station:WAVCIS:CSI16:1,2010-06-01T13:30:00Z,29.4012,-89.0355,1.0,24.624,11111222 
WAVCIS,ioos:station:WAVCIS:CSI16:1,2010-06-01T13:45:00Z,29.4012,-89.0355,1.0,24.774,11111222 
WAVCIS,ioos:station:WAVCIS:CSI16:1,2010-06-01T14:00:00Z,29.4012,-89.0355,1.0,24.466,11111222 
WAVCIS,ioos:station:WAVCIS:CSI16:1,2010-06-01T14:15:00Z,29.4012,-89.0355,1.0,24.803,11111222 
WAVCIS,ioos:station:WAVCIS:CSI16:1,2010-06-01T14:30:00Z,29.4012,-89.0355,1.0,24.457,11111222 
WAVCIS,ioos:station:WAVCIS:CSI16:1,2010-06-01T14:45:00Z,29.4012,-89.0355,1.0,24.278,11111222 
WAVCIS,ioos:station:WAVCIS:CSI16:1,2010-06-01T15:00:00Z,29.4012,-89.0355,1.0,24.927,11111222 
WAVCIS,ioos:station:WAVCIS:CSI16:1,2010-06-01T15:15:00Z,29.4012,-89.0355,1.0,25.259,11111222 
WAVCIS,ioos:station:WAVCIS:CSI16:1,2010-06-01T15:30:00Z,29.4012,-89.0355,1.0,24.96,11111222 
WAVCIS,ioos:station:WAVCIS:CSI16:1,2010-06-01T15:45:00Z,29.4012,-89.0355,1.0,25.252,11111222 
WAVCIS,ioos:station:WAVCIS:CSI16:1,2010-06-01T16:00:00Z,29.4012,-89.0355,1.0,25.449,11111222 
WAVCIS,ioos:station:WAVCIS:CSI16:1,2010-06-01T16:15:00Z,29.4012,-89.0355,1.0,25.524,11111222 
WAVCIS,ioos:station:WAVCIS:CSI16:1,2010-06-01T16:30:00Z,29.4012,-89.0355,1.0,25.492,11111222 
WAVCIS,ioos:station:WAVCIS:CSI16:1,2010-06-01T16:45:00Z,29.4012,-89.0355,1.0,25.468,11111222 
WAVCIS,ioos:station:WAVCIS:CSI16:1,2010-06-01T17:00:00Z,29.4012,-89.0355,1.0,25.514,11111222 
WAVCIS,ioos:station:WAVCIS:CSI16:1,2010-06-01T17:15:00Z,29.4012,-89.0355,1.0,25.453,11111222 
WAVCIS,ioos:station:WAVCIS:CSI16:1,2010-06-01T17:30:00Z,29.4012,-89.0355,1.0,25.516,11111222 
WAVCIS,ioos:station:WAVCIS:CSI16:1,2010-06-01T17:45:00Z,29.4012,-89.0355,1.0,25.534,11111222 
WAVCIS,ioos:station:WAVCIS:CSI16:1,2010-06-01T18:00:00Z,29.4012,-89.0355,1.0,25.516,11111222 
WAVCIS,ioos:station:WAVCIS:CSI16:1,2010-06-01T18:15:00Z,29.4012,-89.0355,1.0,25.576,11111222 
WAVCIS,ioos:station:WAVCIS:CSI16:1,2010-06-01T18:30:00Z,29.4012,-89.0355,1.0,25.669,11111222 
WAVCIS,ioos:station:WAVCIS:CSI16:1,2010-06-01T18:45:00Z,29.4012,-89.0355,1.0,25.466,11111222 
WAVCIS,ioos:station:WAVCIS:CSI16:1,2010-06-01T19:00:00Z,29.4012,-89.0355,1.0,25.695,11111222 
WAVCIS,ioos:station:WAVCIS:CSI16:1,2010-06-01T19:15:00Z,29.4012,-89.0355,1.0,25.654,11111222 
WAVCIS,ioos:station:WAVCIS:CSI16:1,2010-06-01T19:30:00Z,29.4012,-89.0355,1.0,25.576,11111222 
WAVCIS,ioos:station:WAVCIS:CSI16:1,2010-06-01T19:45:00Z,29.4012,-89.0355,1.0,25.017,11111222 
WAVCIS,ioos:station:WAVCIS:CSI16:1,2010-06-01T20:00:00Z,29.4012,-89.0355,1.0,25.056,11111222 
WAVCIS,ioos:station:WAVCIS:CSI16:1,2010-06-01T20:15:00Z,29.4012,-89.0355,1.0,21.431,11111222 
WAVCIS,ioos:station:WAVCIS:CSI16:1,2010-06-01T20:30:00Z,29.4012,-89.0355,1.0,24.33,11111222 
WAVCIS,ioos:station:WAVCIS:CSI16:1,2010-06-01T20:45:00Z,29.4012,-89.0355,1.0,24.588,11111222 
WAVCIS,ioos:station:WAVCIS:CSI16:1,2010-06-01T21:00:00Z,29.4012,-89.0355,1.0,23.723,11111222 
WAVCIS,ioos:station:WAVCIS:CSI16:1,2010-06-01T21:15:00Z,29.4012,-89.0355,1.0,23.434,11111222 
WAVCIS,ioos:station:WAVCIS:CSI16:1,2010-06-01T21:30:00Z,29.4012,-89.0355,1.0,23.335,11111222 
WAVCIS,ioos:station:WAVCIS:CSI16:1,2010-06-01T21:45:00Z,29.4012,-89.0355,1.0,23.065,11111222 
WAVCIS,ioos:station:WAVCIS:CSI16:1,2010-06-01T22:00:00Z,29.4012,-89.0355,1.0,22.541,11111222 
WAVCIS,ioos:station:WAVCIS:CSI16:1,2010-06-01T22:15:00Z,29.4012,-89.0355,1.0,20.904,11111222 
WAVCIS,ioos:station:WAVCIS:CSI16:1,2010-06-01T22:30:00Z,29.4012,-89.0355,1.0,20.343,11111222 
WAVCIS,ioos:station:WAVCIS:CSI16:1,2010-06-01T22:45:00Z,29.4012,-89.0355,1.0,19.189,11111222 
WAVCIS,ioos:station:WAVCIS:CSI16:1,2010-06-01T23:00:00Z,29.4012,-89.0355,1.0,18.664,11111222 
WAVCIS,ioos:station:WAVCIS:CSI16:1,2010-06-01T23:15:00Z,29.4012,-89.0355,1.0,18.169,11111222 
WAVCIS,ioos:station:WAVCIS:CSI16:1,2010-06-01T23:30:00Z,29.4012,-89.0355,1.0,18.112,11111222 
WAVCIS,ioos:station:WAVCIS:CSI16:1,2010-06-01T23:45:00Z,29.4012,-89.0355,1.0,17.933,11111222 
WAVCIS,ioos:station:WAVCIS:CSI16:1,2010-06-02T00:00:00Z,29.4012,-89.0355,1.0,17.66,11111222 
WAVCIS,ioos:station:WAVCIS:CSI16:1,2010-06-02T00:15:00Z,29.4012,-89.0355,1.0,15.922,11111222 
WAVCIS,ioos:station:WAVCIS:CSI16:1,2010-06-02T00:30:00Z,29.4012,-89.0355,1.0,15.269,11111222 
WAVCIS,ioos:station:WAVCIS:CSI16:1,2010-06-02T00:45:00Z,29.4012,-89.0355,1.0,15.878,11111222 
WAVCIS,ioos:station:WAVCIS:CSI16:1,2010-06-02T01:00:00Z,29.4012,-89.0355,1.0,14.276,11111222 
WAVCIS,ioos:station:WAVCIS:CSI16:1,2010-06-02T01:15:00Z,29.4012,-89.0355,1.0,14.292,11111222 
WAVCIS,ioos:station:WAVCIS:CSI16:1,2010-06-02T01:30:00Z,29.4012,-89.0355,1.0,14.337,11111222 
WAVCIS,ioos:station:WAVCIS:CSI16:1,2010-06-02T01:45:00Z,29.4012,-89.0355,1.0,14.702,11111222 
WAVCIS,ioos:station:WAVCIS:CSI16:1,2010-06-02T02:00:00Z,29.4012,-89.0355,1.0,16.172,11111222 
WAVCIS,ioos:station:WAVCIS:CSI16:1,2010-06-02T02:15:00Z,29.4012,-89.0355,1.0,18.03,11111222 
WAVCIS,ioos:station:WAVCIS:CSI16:1,2010-06-02T02:30:00Z,29.4012,-89.0355,1.0,16.451,11111222 
WAVCIS,ioos:station:WAVCIS:CSI16:1,2010-06-02T02:45:00Z,29.4012,-89.0355,1.0,15.954,11111222 
WAVCIS,ioos:station:WAVCIS:CSI16:1,2010-06-02T03:00:00Z,29.4012,-89.0355,1.0,14.736,11111222 
WAVCIS,ioos:station:WAVCIS:CSI16:1,2010-06-02T03:15:00Z,29.4012,-89.0355,1.0,13.722,11111222 
WAVCIS,ioos:station:WAVCIS:CSI16:1,2010-06-02T03:30:00Z,29.4012,-89.0355,1.0,11.915,11111222 
WAVCIS,ioos:station:WAVCIS:CSI16:1,2010-06-02T03:45:00Z,29.4012,-89.0355,1.0,12.006,11111222 
WAVCIS,ioos:station:WAVCIS:CSI16:1,2010-06-02T04:00:00Z,29.4012,-89.0355,1.0,10.725,11111222 
WAVCIS,ioos:station:WAVCIS:CSI16:1,2010-06-02T04:15:00Z,29.4012,-89.0355,1.0,10.872,11111222 
WAVCIS,ioos:station:WAVCIS:CSI16:1,2010-06-02T04:30:00Z,29.4012,-89.0355,1.0,10.71,11111222 
WAVCIS,ioos:station:WAVCIS:CSI16:1,2010-06-02T04:45:00Z,29.4012,-89.0355,1.0,11.22,11111222 
WAVCIS,ioos:station:WAVCIS:CSI16:1,2010-06-02T05:00:00Z,29.4012,-89.0355,1.0,12.311,11111222 
WAVCIS,ioos:station:WAVCIS:CSI16:1,2010-06-02T05:15:00Z,29.4012,-89.0355,1.0,12.63,11111222 
WAVCIS,ioos:station:WAVCIS:CSI16:1,2010-06-02T05:30:00Z,29.4012,-89.0355,1.0,11.835,11111222 
WAVCIS,ioos:station:WAVCIS:CSI16:1,2010-06-02T05:45:00Z,29.4012,-89.0355,1.0,11.455,11111222 
WAVCIS,ioos:station:WAVCIS:CSI16:1,2010-06-02T06:00:00Z,29.4012,-89.0355,1.0,11.473,11111222 
WAVCIS,ioos:station:WAVCIS:CSI16:1,2010-06-02T06:15:00Z,29.4012,-89.0355,1.0,13.431,11111222 
WAVCIS,ioos:station:WAVCIS:CSI16:1,2010-06-02T06:30:00Z,29.4012,-89.0355,1.0,13.966,11111222 
WAVCIS,ioos:station:WAVCIS:CSI16:1,2010-06-02T06:45:00Z,29.4012,-89.0355,1.0,13.942,11111222 
WAVCIS,ioos:station:WAVCIS:CSI16:1,2010-06-02T07:00:00Z,29.4012,-89.0355,1.0,12.817,11111222 
WAVCIS,ioos:station:WAVCIS:CSI16:1,2010-06-02T07:15:00Z,29.4012,-89.0355,1.0,13.318,11111222 
WAVCIS,ioos:station:WAVCIS:CSI16:1,2010-06-02T07:30:00Z,29.4012,-89.0355,1.0,12.184,11111222 
WAVCIS,ioos:station:WAVCIS:CSI16:1,2010-06-02T07:45:00Z,29.4012,-89.0355,1.0,13.843,11111222 
WAVCIS,ioos:station:WAVCIS:CSI16:1,2010-06-02T08:00:00Z,29.4012,-89.0355,1.0,14.95,11111222 
WAVCIS,ioos:station:WAVCIS:CSI16:1,2010-06-02T08:15:00Z,29.4012,-89.0355,1.0,17.395,11111222 
WAVCIS,ioos:station:WAVCIS:CSI16:1,2010-06-02T08:30:00Z,29.4012,-89.0355,1.0,19.784,11111222 
WAVCIS,ioos:station:WAVCIS:CSI16:1,2010-06-02T08:45:00Z,29.4012,-89.0355,1.0,22.469,11111222 
WAVCIS,ioos:station:WAVCIS:CSI16:1,2010-06-02T09:00:00Z,29.4012,-89.0355,1.0,22.657,11111222 
WAVCIS,ioos:station:WAVCIS:CSI16:1,2010-06-02T09:15:00Z,29.4012,-89.0355,1.0,22.803,11111222 
WAVCIS,ioos:station:WAVCIS:CSI16:1,2010-06-02T09:30:00Z,29.4012,-89.0355,1.0,22.987,11111222 
WAVCIS,ioos:station:WAVCIS:CSI16:1,2010-06-02T09:45:00Z,29.4012,-89.0355,1.0,22.943,11111222 
WAVCIS,ioos:station:WAVCIS:CSI16:1,2010-06-02T10:00:00Z,29.4012,-89.0355,1.0,23.627,11111222 
WAVCIS,ioos:station:WAVCIS:CSI16:1,2010-06-02T10:15:00Z,29.4012,-89.0355,1.0,23.748,11111222 
WAVCIS,ioos:station:WAVCIS:CSI16:1,2010-06-02T10:30:00Z,29.4012,-89.0355,1.0,23.859,11111222 
WAVCIS,ioos:station:WAVCIS:CSI16:1,2010-06-02T10:45:00Z,29.4012,-89.0355,1.0,24.231,11111222 
WAVCIS,ioos:station:WAVCIS:CSI16:1,2010-06-02T11:00:00Z,29.4012,-89.0355,1.0,22.72,11111222 
WAVCIS,ioos:station:WAVCIS:CSI16:1,2010-06-02T11:15:00Z,29.4012,-89.0355,1.0,24.369,11111222 
WAVCIS,ioos:station:WAVCIS:CSI16:1,2010-06-02T11:30:00Z,29.4012,-89.0355,1.0,24.434,11111222 
WAVCIS,ioos:station:WAVCIS:CSI16:1,2010-06-02T11:45:00Z,29.4012,-89.0355,1.0,25.271,11111222 
WAVCIS,ioos:station:WAVCIS:CSI16:1,2010-06-02T12:00:00Z,29.4012,-89.0355,1.0,27.117,11111222 
WAVCIS,ioos:station:WAVCIS:CSI16:1,2010-06-02T12:15:00Z,29.4012,-89.0355,1.0,20.301,11111222 
WAVCIS,ioos:station:WAVCIS:CSI16:1,2010-06-02T12:30:00Z,29.4012,-89.0355,1.0,25.108,11111222 
WAVCIS,ioos:station:WAVCIS:CSI16:1,2010-06-02T12:45:00Z,29.4012,-89.0355,1.0,25.335,11111222 
WAVCIS,ioos:station:WAVCIS:CSI16:1,2010-06-02T13:00:00Z,29.4012,-89.0355,1.0,24.545,11111222 
WAVCIS,ioos:station:WAVCIS:CSI16:1,2010-06-02T13:15:00Z,29.4012,-89.0355,1.0,24.89,11111222 
WAVCIS,ioos:station:WAVCIS:CSI16:1,2010-06-02T13:30:00Z,29.4012,-89.0355,1.0,25.064,11111222 
WAVCIS,ioos:station:WAVCIS:CSI16:1,2010-06-02T13:45:00Z,29.4012,-89.0355,1.0,25.218,11111222 
WAVCIS,ioos:station:WAVCIS:CSI16:1,2010-06-02T14:00:00Z,29.4012,-89.0355,1.0,25.365,11111222 
WAVCIS,ioos:station:WAVCIS:CSI16:1,2010-06-02T14:15:00Z,29.4012,-89.0355,1.0,25.488,11111222 
WAVCIS,ioos:station:WAVCIS:CSI16:1,2010-06-02T14:30:00Z,29.4012,-89.0355,1.0,25.453,11111222 
WAVCIS,ioos:station:WAVCIS:CSI16:1,2010-06-02T14:45:00Z,29.4012,-89.0355,1.0,25.239,11111222 
WAVCIS,ioos:station:WAVCIS:CSI16:1,2010-06-02T15:00:00Z,29.4012,-89.0355,1.0,25.21,11111222 
WAVCIS,ioos:station:WAVCIS:CSI16:1,2010-06-02T15:15:00Z,29.4012,-89.0355,1.0,25.331,11111222 
WAVCIS,ioos:station:WAVCIS:CSI16:1,2010-06-02T15:30:00Z,29.4012,-89.0355,1.0,25.566,11111222 
WAVCIS,ioos:station:WAVCIS:CSI16:1,2010-06-02T15:45:00Z,29.4012,-89.0355,1.0,25.447,11111222 
WAVCIS,ioos:station:WAVCIS:CSI16:1,2010-06-02T16:00:00Z,29.4012,-89.0355,1.0,25.151,11111222 
WAVCIS,ioos:station:WAVCIS:CSI16:1,2010-06-02T16:15:00Z,29.4012,-89.0355,1.0,24.813,11111222 
WAVCIS,ioos:station:WAVCIS:CSI16:1,2010-06-02T16:30:00Z,29.4012,-89.0355,1.0,23.486,11111222 
WAVCIS,ioos:station:WAVCIS:CSI16:1,2010-06-02T16:45:00Z,29.4012,-89.0355,1.0,24.149,11111222 
WAVCIS,ioos:station:WAVCIS:CSI16:1,2010-06-02T17:00:00Z,29.4012,-89.0355,1.0,24.802,11111222 
WAVCIS,ioos:station:WAVCIS:CSI16:1,2010-06-02T17:15:00Z,29.4012,-89.0355,1.0,25.132,11111222 
WAVCIS,ioos:station:WAVCIS:CSI16:1,2010-06-02T17:30:00Z,29.4012,-89.0355,1.0,24.962,11111222 
WAVCIS,ioos:station:WAVCIS:CSI16:1,2010-06-02T17:45:00Z,29.4012,-89.0355,1.0,24.905,11111222 
WAVCIS,ioos:station:WAVCIS:CSI16:1,2010-06-02T18:00:00Z,29.4012,-89.0355,1.0,24.98,11111222 
WAVCIS,ioos:station:WAVCIS:CSI16:1,2010-06-02T18:15:00Z,29.4012,-89.0355,1.0,25.297,11111222 
WAVCIS,ioos:station:WAVCIS:CSI16:1,2010-06-02T18:30:00Z,29.4012,-89.0355,1.0,24.676,11111222 
WAVCIS,ioos:station:WAVCIS:CSI16:1,2010-06-02T18:45:00Z,29.4012,-89.0355,1.0,23.513,11111222 
WAVCIS,ioos:station:WAVCIS:CSI16:1,2010-06-02T19:00:00Z,29.4012,-89.0355,1.0,24.113,11111222 
WAVCIS,ioos:station:WAVCIS:CSI16:1,2010-06-02T19:15:00Z,29.4012,-89.0355,1.0,24.778,11111222 
WAVCIS,ioos:station:WAVCIS:CSI16:1,2010-06-02T19:30:00Z,29.4012,-89.0355,1.0,21.467,11111222 
WAVCIS,ioos:station:WAVCIS:CSI16:1,2010-06-02T19:45:00Z,29.4012,-89.0355,1.0,21.205,11111222 
WAVCIS,ioos:station:WAVCIS:CSI16:1,2010-06-02T20:00:00Z,29.4012,-89.0355,1.0,19.627,11111222 
WAVCIS,ioos:station:WAVCIS:CSI16:1,2010-06-02T20:15:00Z,29.4012,-89.0355,1.0,17.504,11111222 
WAVCIS,ioos:station:WAVCIS:CSI16:1,2010-06-02T20:30:00Z,29.4012,-89.0355,1.0,17.039,11111222 
WAVCIS,ioos:station:WAVCIS:CSI16:1,2010-06-02T20:45:00Z,29.4012,-89.0355,1.0,17.485,11111222 
WAVCIS,ioos:station:WAVCIS:CSI16:1,2010-06-02T21:00:00Z,29.4012,-89.0355,1.0,17.9,11111222 
WAVCIS,ioos:station:WAVCIS:CSI16:1,2010-06-02T21:15:00Z,29.4012,-89.0355,1.0,18.145,11111222 
WAVCIS,ioos:station:WAVCIS:CSI16:1,2010-06-02T21:30:00Z,29.4012,-89.0355,1.0,19.15,11111222 
WAVCIS,ioos:station:WAVCIS:CSI16:1,2010-06-02T21:45:00Z,29.4012,-89.0355,1.0,19.048,11111222 
WAVCIS,ioos:station:WAVCIS:CSI16:1,2010-06-02T22:00:00Z,29.4012,-89.0355,1.0,20.717,11111222 
WAVCIS,ioos:station:WAVCIS:CSI16:1,2010-06-02T22:15:00Z,29.4012,-89.0355,1.0,19.525,11111222 
WAVCIS,ioos:station:WAVCIS:CSI16:1,2010-06-02T22:30:00Z,29.4012,-89.0355,1.0,19.136,11111222 
WAVCIS,ioos:station:WAVCIS:CSI16:1,2010-06-02T22:45:00Z,29.4012,-89.0355,1.0,19.266,11111222 
WAVCIS,ioos:station:WAVCIS:CSI16:1,2010-06-02T23:00:00Z,29.4012,-89.0355,1.0,19.31,11111222 
WAVCIS,ioos:station:WAVCIS:CSI16:1,2010-06-02T23:15:00Z,29.4012,-89.0355,1.0,19.383,11111222 
WAVCIS,ioos:station:WAVCIS:CSI16:1,2010-06-02T23:30:00Z,29.4012,-89.0355,1.0,19.206,11111222 
WAVCIS,ioos:station:WAVCIS:CSI16:1,2010-06-02T23:45:00Z,29.4012,-89.0355,1.0,18.942,11111222 
WAVCIS,ioos:station:WAVCIS:CSI16:1,2010-06-03T00:00:00Z,29.4012,-89.0355,1.0,18.853,11111222 
WAVCIS,ioos:station:WAVCIS:CSI16:1,2010-06-03T00:15:00Z,29.4012,-89.0355,1.0,19.626,11111222 
WAVCIS,ioos:station:WAVCIS:CSI16:1,2010-06-03T00:30:00Z,29.4012,-89.0355,1.0,20.202,11111222 
WAVCIS,ioos:station:WAVCIS:CSI16:1,2010-06-03T00:45:00Z,29.4012,-89.0355,1.0,20.688,11111222 
WAVCIS,ioos:station:WAVCIS:CSI16:1,2010-06-03T01:00:00Z,29.4012,-89.0355,1.0,21.428,11111222 
WAVCIS,ioos:station:WAVCIS:CSI16:1,2010-06-03T01:15:00Z,29.4012,-89.0355,1.0,22.245,11111222 
WAVCIS,ioos:station:WAVCIS:CSI16:1,2010-06-03T01:30:00Z,29.4012,-89.0355,1.0,23.239,11111222 
WAVCIS,ioos:station:WAVCIS:CSI16:1,2010-06-03T01:45:00Z,29.4012,-89.0355,1.0,24.679,11111222 
WAVCIS,ioos:station:WAVCIS:CSI16:1,2010-06-03T02:00:00Z,29.4012,-89.0355,1.0,24.644,11111222 
WAVCIS,ioos:station:WAVCIS:CSI16:1,2010-06-03T02:15:00Z,29.4012,-89.0355,1.0,24.89,11111222 
WAVCIS,ioos:station:WAVCIS:CSI16:1,2010-06-03T02:30:00Z,29.4012,-89.0355,1.0,24.77,11111222 
WAVCIS,ioos:station:WAVCIS:CSI16:1,2010-06-03T02:45:00Z,29.4012,-89.0355,1.0,24.625,11111222 
WAVCIS,ioos:station:WAVCIS:CSI16:1,2010-06-03T03:00:00Z,29.4012,-89.0355,1.0,24.775,11111222 
WAVCIS,ioos:station:WAVCIS:CSI16:1,2010-06-03T03:15:00Z,29.4012,-89.0355,1.0,24.613,11111222 
WAVCIS,ioos:station:WAVCIS:CSI16:1,2010-06-03T03:30:00Z,29.4012,-89.0355,1.0,24.483,11111222 
WAVCIS,ioos:station:WAVCIS:CSI16:1,2010-06-03T03:45:00Z,29.4012,-89.0355,1.0,24.47,11111222 
WAVCIS,ioos:station:WAVCIS:CSI16:1,2010-06-03T04:00:00Z,29.4012,-89.0355,1.0,24.501,11111222 
WAVCIS,ioos:station:WAVCIS:CSI16:1,2010-06-03T04:15:00Z,29.4012,-89.0355,1.0,24.606,11111222 
WAVCIS,ioos:station:WAVCIS:CSI16:1,2010-06-03T04:30:00Z,29.4012,-89.0355,1.0,24.471,11111222 
WAVCIS,ioos:station:WAVCIS:CSI16:1,2010-06-03T04:45:00Z,29.4012,-89.0355,1.0,24.557,11111222 
WAVCIS,ioos:station:WAVCIS:CSI16:1,2010-06-03T05:00:00Z,29.4012,-89.0355,1.0,24.595,11111222 
WAVCIS,ioos:station:WAVCIS:CSI16:1,2010-06-03T05:15:00Z,29.4012,-89.0355,1.0,24.73,11111222 
WAVCIS,ioos:station:WAVCIS:CSI16:1,2010-06-03T05:30:00Z,29.4012,-89.0355,1.0,24.832,11111222 
WAVCIS,ioos:station:WAVCIS:CSI16:1,2010-06-03T05:45:00Z,29.4012,-89.0355,1.0,24.855,11111222 
WAVCIS,ioos:station:WAVCIS:CSI16:1,2010-06-03T06:00:00Z,29.4012,-89.0355,1.0,24.791,11111222 
WAVCIS,ioos:station:WAVCIS:CSI16:1,2010-06-03T06:15:00Z,29.4012,-89.0355,1.0,24.869,11111222 
WAVCIS,ioos:station:WAVCIS:CSI16:1,2010-06-03T06:30:00Z,29.4012,-89.0355,1.0,24.817,11111222 
WAVCIS,ioos:station:WAVCIS:CSI16:1,2010-06-03T06:45:00Z,29.4012,-89.0355,1.0,24.779,11111222 
WAVCIS,ioos:station:WAVCIS:CSI16:1,2010-06-03T07:00:00Z,29.4012,-89.0355,1.0,24.843,11111222 
WAVCIS,ioos:station:WAVCIS:CSI16:1,2010-06-03T07:15:00Z,29.4012,-89.0355,1.0,24.718,11111222 
WAVCIS,ioos:station:WAVCIS:CSI16:1,2010-06-03T07:30:00Z,29.4012,-89.0355,1.0,24.643,11111222 
WAVCIS,ioos:station:WAVCIS:CSI16:1,2010-06-03T07:45:00Z,29.4012,-89.0355,1.0,24.776,11111222 
WAVCIS,ioos:station:WAVCIS:CSI16:1,2010-06-03T08:00:00Z,29.4012,-89.0355,1.0,24.711,11111222 
WAVCIS,ioos:station:WAVCIS:CSI16:1,2010-06-03T08:15:00Z,29.4012,-89.0355,1.0,24.794,11111222 
WAVCIS,ioos:station:WAVCIS:CSI16:1,2010-06-03T08:30:00Z,29.4012,-89.0355,1.0,24.648,11111222 
WAVCIS,ioos:station:WAVCIS:CSI16:1,2010-06-03T08:45:00Z,29.4012,-89.0355,1.0,24.507,11111222 
WAVCIS,ioos:station:WAVCIS:CSI16:1,2010-06-03T09:00:00Z,29.4012,-89.0355,1.0,24.607,11111222 
WAVCIS,ioos:station:WAVCIS:CSI16:1,2010-06-03T09:15:00Z,29.4012,-89.0355,1.0,23.673,11111222 
WAVCIS,ioos:station:WAVCIS:CSI16:1,2010-06-03T09:30:00Z,29.4012,-89.0355,1.0,22.622,11111222 
WAVCIS,ioos:station:WAVCIS:CSI16:1,2010-06-03T09:45:00Z,29.4012,-89.0355,1.0,18.354,11111222 
WAVCIS,ioos:station:WAVCIS:CSI16:1,2010-06-03T10:00:00Z,29.4012,-89.0355,1.0,12.517,11111222 
WAVCIS,ioos:station:WAVCIS:CSI16:1,2010-06-03T10:15:00Z,29.4012,-89.0355,1.0,10.471,11111222 
WAVCIS,ioos:station:WAVCIS:CSI16:1,2010-06-03T10:30:00Z,29.4012,-89.0355,1.0,10.448,11111222 
WAVCIS,ioos:station:WAVCIS:CSI16:1,2010-06-03T10:45:00Z,29.4012,-89.0355,1.0,11.103,11111222 
WAVCIS,ioos:station:WAVCIS:CSI16:1,2010-06-03T11:00:00Z,29.4012,-89.0355,1.0,15.163,11111222 
WAVCIS,ioos:station:WAVCIS:CSI16:1,2010-06-03T11:15:00Z,29.4012,-89.0355,1.0,18.487,11111222 
WAVCIS,ioos:station:WAVCIS:CSI16:1,2010-06-03T11:30:00Z,29.4012,-89.0355,1.0,17.405,11111222 
WAVCIS,ioos:station:WAVCIS:CSI16:1,2010-06-03T11:45:00Z,29.4012,-89.0355,1.0,16.673,11111222 
WAVCIS,ioos:station:WAVCIS:CSI16:1,2010-06-03T12:00:00Z,29.4012,-89.0355,1.0,15.198,11111222 
WAVCIS,ioos:station:WAVCIS:CSI16:1,2010-06-03T12:15:00Z,29.4012,-89.0355,1.0,14.87,11111222 
WAVCIS,ioos:station:WAVCIS:CSI16:1,2010-06-03T12:30:00Z,29.4012,-89.0355,1.0,15.104,11111222 
WAVCIS,ioos:station:WAVCIS:CSI16:1,2010-06-03T12:45:00Z,29.4012,-89.0355,1.0,14.748,11111222 
WAVCIS,ioos:station:WAVCIS:CSI16:1,2010-06-03T13:00:00Z,29.4012,-89.0355,1.0,16.532,11111222 
WAVCIS,ioos:station:WAVCIS:CSI16:1,2010-06-03T13:15:00Z,29.4012,-89.0355,1.0,19.626,11111222 
WAVCIS,ioos:station:WAVCIS:CSI16:1,2010-06-03T13:30:00Z,29.4012,-89.0355,1.0,18.802,11111222 
WAVCIS,ioos:station:WAVCIS:CSI16:1,2010-06-03T13:45:00Z,29.4012,-89.0355,1.0,20.361,11111222 
WAVCIS,ioos:station:WAVCIS:CSI16:1,2010-06-03T14:00:00Z,29.4012,-89.0355,1.0,22.505,11111222 
WAVCIS,ioos:station:WAVCIS:CSI16:1,2010-06-03T14:15:00Z,29.4012,-89.0355,1.0,21.557,11111222 
WAVCIS,ioos:station:WAVCIS:CSI16:1,2010-06-03T14:30:00Z,29.4012,-89.0355,1.0,24.424,11111222 
WAVCIS,ioos:station:WAVCIS:CSI16:1,2010-06-03T14:45:00Z,29.4012,-89.0355,1.0,24.514,11111222 
WAVCIS,ioos:station:WAVCIS:CSI16:1,2010-06-03T15:00:00Z,29.4012,-89.0355,1.0,23.547,11111222 
WAVCIS,ioos:station:WAVCIS:CSI16:1,2010-06-03T15:15:00Z,29.4012,-89.0355,1.0,23.905,11111222 